This demonstration page uses our WeatherBlox Daily Observations layout. Learn more.

Left ArrowRight Arrow

Hourly Observations for May 13, 2017

Temp ( °F °C ) Dew Point ( °F °C ) Humidity (%) Winds ( mph kmh ) Pressure ( in mb ) Visibility ( mi km ) Precip ( " mm )
12:54 am 00:54 Clear 52 11.1 46 7.8 80 80 Calm 29.99 1016 10 16.0934 0 0
1:54 am 01:54 Clear 50 10 45 7.2 83 83 Calm 29.98 1015 10 16.0934 0 0
2:54 am 02:54 Clear 50 10 45 7.2 83 83 Calm 29.97 1015 10 16.0934 0 0
3:54 am 03:54 Clear 50 10 45 7.2 83 83 Calm 29.96 1015 10 16.0934 0 0
4:54 am 04:54 Clear 51 10.6 44 6.7 77 77 SSE 3 6 29.97 1015 10 16.0934 0 0
5:54 am 05:54 Clear 47 8.3 44 6.7 90 90 SSE 5 7 29.97 1015 10 16.0934 0 0
6:54 am 06:54 Sunny 49 9.4 44 6.7 83 83 S 3 6 29.97 1015 10 16.0934 0 0
7:54 am 07:54 Sunny 54 12.2 46 7.8 75 75 SSE 3 6 29.98 1015 10 16.0934 0 0
8:54 am 08:54 Sunny 62 16.7 49 9.4 62 62 SSE 5 7 29.96 1015 10 16.0934 0 0
9:54 am 09:54 Sunny 70 21.1 44 6.7 39 39 S 10 17 29.95 1014 10 16.0934 0 0
10:54 am 10:54 Sunny 72 22.2 41 5 33 33 S 14 22 29.94 1014 10 16.0934 0 0
11:54 am 11:54 Sunny 75 23.9 43 6.1 32 32 S 13 20 29.92 1013 10 16.0934 0 0
12:54 pm 12:54 Sunny 76 24.4 43 6.1 31 31 S 15 24 29.89 1012 10 16.0934 0 0
1:54 pm 13:54 Sunny 78 25.6 41 5 27 27 S 15 24 29.86 1011 10 16.0934 0 0
2:54 pm 14:54 Sunny 79 26.1 42 5.6 27 27 S 18 30 29.84 1011 10 16.0934 0 0
3:54 pm 15:54 Sunny 80 26.7 41 5 25 25 S 21 33 29.81 1009 10 16.0934 0 0
4:54 pm 16:54 Sunny 80 26.7 41 5 25 25 S 21 33 29.78 1009 10 16.0934 0 0
5:54 pm 17:54 Sunny 79 26.1 43 6.1 28 28 S 21 33 29.76 1008 10 16.0934 0 0
6:54 pm 18:54 Sunny 77 25 42 5.6 29 29 SSW 20 31 29.75 1008 10 16.0934 0 0
7:54 pm 19:54 Sunny 75 23.9 45 7.2 34 34 S 17 28 29.75 1007 10 16.0934 0 0
8:54 pm 20:54 Clear 71 21.7 47 8.3 42 42 S 12 19 29.75 1008 10 16.0934 0 0
9:54 pm 21:54 Clear 66 18.9 48 8.9 52 52 S 10 17 29.76 1008 10 16.0934 0 0
10:54 pm 22:54 Clear 64 17.8 50 10 60 60 S 12 19 29.76 1008 10 16.0934 0 0
11:54 pm 23:54 Clear 63 17.2 50 10 63 63 SSE 10 17 29.76 1008 10 16.0934 0 0

Powered by AerisWeather